• MPC Preparation (Info)

  • MPEC 2023-G55 : 2023 FS14

    The following Minor Planet Electronic Circular may be linked-to from your own Web pages, but must not otherwise be redistributed electronically.

    A form allowing access to any MPEC is at the bottom of this page.


    Read MPEC 2023-G54 Read MPEC 2023-G56


    M.P.E.C. 2023-G55                                Issued 2023 April 11, 10:51 UT
    
         The Minor Planet Electronic Circulars contain information on unusual
             minor planets, routine data on comets and natural satellites,
             and occasional editorial announcements.  They are published
        on behalf of Division F of the International Astronomical Union by the
              Minor Planet Center, Smithsonian Astrophysical Observatory,
                              Cambridge, MA 02138, U.S.A.
    			  
                 Prepared using the Tamkin Foundation Computer Network
    
                                  MPC@CFA.HARVARD.EDU
                URL https://www.minorplanetcenter.net/    ISSN 1523-6714
    
                                    2023 FS14                                
    
    
    Observations:
         K23F14S* C2023 03 18.36721412 29 40.312+27 03 06.26         22.00GVEG055V00
         K23F14S  C2023 03 18.37221712 29 40.074+27 03 15.30         22.03GVEG055V00
         K23F14S  C2023 03 18.37717712 29 39.862+27 03 24.12         22.18GVEG055V00
         K23F14S  C2023 03 18.38214412 29 39.646+27 03 32.58         21.64GVEG055V00
         K23F14S  C2023 03 18.47648 12 29 35.27 +27 06 19.1                VEG055G96
         K23F14S  C2023 03 18.49188 12 29 34.62 +27 06 45.7          21.3 GVEG055G96
         K23F14S 1C2023 04 10.28833612 04 36.116+38 25 19.52         21.45GVEG055G96
         K23F14S 1C2023 04 10.29357212 04 35.659+38 25 28.02         22.15GVEG055G96
         K23F14S 1C2023 04 10.29881412 04 35.209+38 25 37.24               VEG055G96
         K23F14S 1C2023 04 10.30405412 04 34.662+38 25 45.52         21.44GVEG055G96
         K23F14S KC2023 04 10.41877612 04 24.301+38 28 48.40         21.12GVEG055I52
         K23F14S KC2023 04 10.42775512 04 23.498+38 29 02.44         21.72GVEG055I52
         K23F14S KC2023 04 10.43673312 04 22.703+38 29 16.94         21.83GVEG055I52
         K23F14S KC2023 04 10.44570712 04 21.907+38 29 30.98         21.46GVEG055I52
         K23F14S KC2023 04 11.11525712 03 27.34 +38 47 41.3          21.3 VuEG055H21
         K23F14S KC2023 04 11.12336812 03 26.61 +38 47 54.7          21.2 VuEG055H21
         K23F14S KC2023 04 11.13305612 03 25.76 +38 48 10.4          21.4 VuEG055H21
         K23F14S KC2023 04 11.19070912 03 20.963+38 49 46.31         20.42GVEG055I52
         K23F14S KC2023 04 11.20092112 03 20.045+38 50 02.44         21.64GVEG055I52
         K23F14S  C2023 04 11.32731412 03 08.201+38 53 25.21         21.3 GVEG055H01
         K23F14S  C2023 04 11.33038612 03 07.918+38 53 30.08         21.3 GVEG055H01
         K23F14S  C2023 04 11.34101712 03 06.938+38 53 46.75         21.0 GVEG055H01
         K23F14S  C2023 04 11.34764512 03 06.333+38 53 57.17         20.8 GVEG055H01
    
    Observer details:
    G96 Mt. Lemmon Survey.  Observers J. K. Hogan, K. W. Wierzchos.  Measurers B.
        Gray, D. Rankin, F. C. Shelly, E. J. Christensen, D. Fay, J. B. Fazekas,
        D. C. Fuls, A. R. Gibbs, A. D. Grauer, H. Groeller, J. K. Hogan, R. A.
        Kowalski, S. M. Larson, G. J. Leonard, R. L. Seaman, A. Serrano, K. W.
        Wierzchos.  1.5-m reflector + 10K CCD.
    H01 Magdalena Ridge Observatory, Socorro.  Observers W. H. Ryan, E. V. Ryan.
        Measurer W. H. Ryan.  2.4-m f/8.9 Ritchey-Chretien + CCD.
    H21 Astronomical Research Observatory, Westfield.  Observer R. Holmes.
        Measurers T. Linder, R. Holmes, L. Horn.  0.76-m f/3.0 astrograph + CCD.
    I52 Steward Observatory, Mt. Lemmon Station.  Observers J. K. Hogan, D.
        Rankin.  Measurers E. J. Christensen, D. Fay, J. B. Fazekas, D. C. Fuls,
        A. R. Gibbs, A. D. Grauer, H. Groeller, J. K. Hogan, R. A. Kowalski, S. M.
        Larson, G. J. Leonard, D. Rankin, R. L. Seaman, A. Serrano, F. C. Shelly,
        K. W. Wierzchos.  1.0-m prime focus + CCD.
    V00 Kitt Peak-Bok.  Observer H. Groeller.  Measurers M. J. Brucker, E. J.
        Christensen, C. E. Woodward, D. Fay, J. B. Fazekas, D. C. Fuls, A. R.
        Gibbs, A. D. Grauer, H. Groeller, J. K. Hogan, R. A. Kowalski, S. M.
        Larson, G. J. Leonard, R. S. McMillan, D. Rankin, R. L. Seaman, A.
        Serrano, F. C. Shelly, K. W. Wierzchos.  2.25-m reflector + 4x4K mosaic
        CCD.
    
    Orbital elements:
    2023 FS14                                           PHA, Earth MOID = 0.0181 AU
    Epoch 2023 Feb. 25.0 TT = JDT 2460000.5                 Veres                   
    M 334.07946              (2000.0)            P               Q                  
    n   0.22397958     Peri.  151.88609     -0.05169402     +0.98168110             
    a   2.6853265      Node   114.64526     -0.94991279     +0.00833801             
    e   0.6481251      Incl.   11.64013     -0.30821002     -0.19034886             
    P   4.40           H   21.29          G   0.15           U   8                  
    Residuals in seconds of arc
    230318 V00  0.2-  0.1-    230410 G96  0.4+  0.7+    230411 H21  0.1+  0.1-
    230318 V00  0.3-  0.1+    230410 G96  0.4-  0.4+    230411 I52  0.3-  0.5+
    230318 V00  0.0   0.1+    230410 I52  0.3+  0.1-    230411 I52  0.0   0.2-
    230318 V00  0.2+  0.2-    230410 I52  0.2+  0.2-    230411 H01  0.1+  0.0
    230318 G96  0.0   0.5+    230410 I52  0.1+  0.1+    230411 H01  0.1+  0.0
    230318 G96  0.6+  0.1+    230410 I52  0.0   0.0     230411 H01  0.1+  0.1-
    230410 G96  0.3-  0.0     230411 H21  0.5-  0.0     230411 H01  0.1+  0.1-
    230410 G96  0.0   0.1-    230411 H21  0.3-  0.1+
    
    Ephemeris:
    2023 FS14                a,e,i = 2.69, 0.65, 12                  q = 0.9449
    Date    TT    R. A. (2000) Decl.     Delta      r    Elong.  Phase     V
    2023 03 12    12 33 11.0 +24 00 42   0.6538  1.6068   154.0    15.7    22.3
    ...
    2023 03 27    12 22 16.4 +31 24 47   0.5350  1.4729   146.3    22.1    21.8
    ...
    2023 04 04    12 13 02.2 +35 26 23   0.4880  1.4021   138.2    28.3    21.7
    ...
    2023 04 10    12 05 00.6 +38 17 23   0.4584  1.3496   131.5    33.8    21.7
    2023 04 11    12 03 36.6 +38 44 35   0.4539  1.3409   130.3    34.7    21.6
    2023 04 12    12 02 11.9 +39 11 21   0.4494  1.3323   129.2    35.7    21.6
    ...
    2023 04 18    11 53 35.7 +41 41 58   0.4244  1.2811   122.2    41.6    21.6
    ...
    2023 04 26    11 42 28.4 +44 34 09   0.3936  1.2151   113.0    49.6    21.5
    ...
    2023 05 11    11 25 29.4 +48 47 34   0.3348  1.1023    97.1    65.4    21.4
    
    M. P. C. Staff               (C) Copyright 2023 MPC           M.P.E.C. 2023-G55
    


    Read MPEC 2023-G54 Read MPEC 2023-G56


    MPEC number:

    Enter an MPEC number in one of the following forms:

    • 1997-B01 (the full form)
    • J97B01 (the packed version of the full form)
    • B01 (the abbreviated form)